Location: *
(58.4167°N, 22.5000°E)
Time: 15:35:40
(UTC+00:00)

Cosmos 1758 Rocket - Pass Details

Date: 22 September 2019
Orbit: 602 x 636 km, 82.5° (Epoch: 20 October)

Event Time Altitude Azimuth Distance (km) Brightness Sun altitude
Rises 18:38:12 0° 348° (NNW) 2,872 7.6 -16.8°
Reaches altitude 10° 18:40:28 10° 352° (N) 1,965 6.6 -17.0°
Maximum altitude 18:44:45 57° 72° (ENE) 716 3.6 -17.5°
Enters shadow 18:46:13 37° 132° (SE) 954 4.0 -17.7°
